Location: Baix
(44.7118°N, 4.7648°E)
Time: 02:04:06
(UTC+00:00)

Vanguard 1 Rocket - Pass Details

Date: 12 October 2022
Orbit: 650 x 4225 km, 34.3° (Epoch: 06 December)

Event Time Altitude Azimuth Distance (km) Brightness Sun altitude
Rises 17:24:11 0° 242° (WSW) 8,368 13.8 -4.8°
Reaches altitude 10° 17:30:05 10° 239° (WSW) 7,421 13.2 -5.8°
Maximum altitude 17:54:49 58° 169° (S) 3,948 10.5 -10.2°
Enters shadow 18:09:30 14° 98° (E) 4,839 10.4 -12.8°
